Temp
21 21 20 20 20 19 19 19 18 18 18 18 18 17 16 16 16 16 16 16 16 16 16 16 16 16 16 15 15 15 15 15 15 15 15 15 15 15 15 15 15 15
21 21 20 20 20 19 19 19 19 18 18 18 18 17 17 16 16 16 16 16 16 16 16 16 16 16 16 15 15 15 15 15 15 15 15 15 15 15 15 15 15 15
21 21 20 20 20 19 19 19 19 19 19 18 18 17 17 16 16 16 16 16 16 16 16 17 16 16 16 16 16 16 15 15 15 15 15 15 15 15 15 14 14 14
21 21 21 20 20 20 19 19 19 19 18 18 17 17 17 16 16 16 16 16 16 16 16 16 16 16 16 16 16 15 15 15 15 15 15 15 15 15 14 14 14 14
22 21 21 20 20 20 19 19 19 19 18 18 17 17 16 16 16 16 16 16 16 16 16 16 16 16 16 16 15 15 15 15 15 15 15 15 15 15 14 14 14 14
22 21 21 20 20 20 20 19 19 19 18 18 17 17 16 16 16 16 16 16 15 15 15 15 15 15 15 15 15 15 15 15 15 15 15 15 15 15 14 14 14 14
22 21 21 21 20 20 20 19 19 19 18 17 17 17 16 16 16 16 16 16 15 15 15 15 15 15 15 15 15 15 15 15 15 15 14 15 15 14 14 14 14 14
22 21 21 20 20 20 19 19 19 19 18 17 17 17 16 16 16 16 16 15 15 15 15 15 15 15 15 15 15 15 15 15 14 14 14 14 14 14 14 14 14 14
21 21 21 20 20 20 20 19 19 19 18 17 17 17 16 16 16 16 16 15 15 15 15 15 15 15 15 14 14 14 15 15 14 14 14 14 14 14 14 14 14 14
21 21 20 20 20 20 20 20 20 19 18 17 17 17 17 16 16 16 16 16 16 15 15 15 15 15 14 14 14 14 14 14 14 14 14 14 14 14 14 14 14 14
21 20 20 21 20 20 20 20 20 19 18 18 18 17 16 16 16 16 16 16 16 16 16 15 15 15 14 14 14 14 14 14 14 14 14 14 14 14 14 14 14 14
20 20 21 21 20 20 20 20 20 19 19 19 18 16 16 16 16 16 16 16 16 16 16 15 15 15 14 14 14 14 14 14 14 14 14 14 14 14 14 14 14 14
20 20 21 20 20 20 20 20 20 20 19 19 17 16 16 16 16 16 16 16 16 16 16 15 15 15 15 14 14 14 14 14 14 14 14 14 14 14 14 14 14 14
20 20 21 20 20 21 20 20 20 20 19 18 17 17 17 17 17 17 17 16 16 16 16 15 15 15 15 14 14 14 14 14 14 14 14 14 14 13 14 14 14 14
20 20 21 20 20 21 20 20 20 20 19 19 18 18 17 17 17 17 17 17 17 16 16 15 15 15 15 14 14 14 14 14 14 14 14 14 13 13 14 14 14 13
20 20 21 21 21 21 21 20 20 20 19 19 19 18 18 17 17 17 17 17 17 16 16 15 15 15 15 14 14 14 14 14 14 14 14 13 13 13 14 14 13 13
20 20 20 21 21 21 21 20 20 20 19 19 19 18 18 17 17 17 17 17 17 16 16 15 15 15 15 14 14 14 14 14 14 14 14 13 13 13 13 14 13 13
20 20 21 21 21 21 20 20 20 20 20 19 19 19 18 18 18 18 17 17 17 16 16 16 15 15 15 14 14 14 14 14 14 14 14 14 13 13 13 13 13 13
20 20 21 21 21 21 20 20 20 20 20 19 19 19 18 18 18 18 17 17 17 16 16 16 16 15 15 14 14 14 14 14 14 14 14 14 14 13 13 13 13 13
21 21 21 21 21 21 20 20 20 20 20 19 19 19 19 18 18 18 17 17 16 16 16 16 15 15 15 14 14 14 14 14 14 14 14 14 14 13 13 13 13 13
21 21 21 22 21 21 20 20 20 20 19 19 19 19 19 18 18 17 17 16 16 16 16 16 15 15 15 14 14 14 14 14 14 14 14 14 13 13 13 13 13 13
21 21 21 21 21 21 20 20 20 20 19 19 19 19 19 18 18 17 17 16 16 16 16 15 15 15 15 14 14 14 14 14 14 14 14 14 13 13 13 13 13 13
21 21 21 21 21 20 20 20 20 20 19 19 18 18 18 18 17 17 16 16 15 15 15 15 15 15 15 14 14 14 14 14 14 14 14 14 13 13 13 13 13 13
21 21 21 21 21 20 20 20 20 19 19 18 18 18 18 17 17 16 15 15 14 15 15 15 15 15 15 15 14 14 14 14 14 14 14 14 13 13 13 13 13 13
21 21 21 21 21 20 20 20 20 19 19 19 18 18 17 17 17 16 15 15 14 14 14 15 15 15 15 14 14 14 14 14 14 14 14 14 13 13 13 13 13 13
21 21 21 21 20 20 19 19 19 19 18 18 18 17 17 17 16 16 16 16 16 15 15 14 14 14 15 15 14 14 14 14 14 14 14 14 13 13 13 13 13 13
Height
1548 1549 1549 1549 1550 1550 1551 1551 1551 1550 1550 1550 1550 1550 1551 1551 1551 1551 1552 1551 1551 1551 1550 1550 1549 1549 1549 1549 1549 1548 1548 1547 1547 1546 1546 1545 1544 1544 1543 1542 1542 1541
1547 1547 1547 1548 1548 1549 1549 1549 1550 1550 1549 1549 1549 1549 1549 1550 1550 1550 1551 1550 1550 1550 1549 1548 1548 1547 1547 1547 1547 1547 1546 1546 1545 1545 1545 1544 1543 1543 1542 1541 1541 1540
1546 1546 1546 1546 1546 1547 1547 1548 1549 1549 1548 1548 1548 1548 1548 1548 1549 1549 1550 1549 1549 1548 1548 1547 1547 1546 1546 1546 1545 1545 1545 1544 1544 1544 1543 1543 1542 1541 1541 1540 1539 1538
1543 1544 1545 1545 1545 1545 1546 1546 1547 1547 1547 1547 1547 1547 1547 1547 1548 1548 1548 1548 1548 1547 1546 1546 1546 1545 1545 1544 1544 1543 1543 1543 1542 1542 1541 1541 1540 1540 1539 1538 1538 1537
1541 1542 1543 1543 1543 1543 1543 1544 1545 1545 1546 1546 1546 1546 1546 1546 1547 1547 1547 1547 1546 1546 1545 1545 1544 1544 1544 1543 1542 1542 1541 1541 1541 1540 1540 1539 1539 1538 1537 1537 1536 1535
1539 1540 1541 1541 1541 1541 1541 1542 1543 1544 1544 1545 1545 1545 1545 1545 1546 1546 1546 1546 1545 1545 1544 1544 1543 1543 1543 1542 1541 1540 1540 1539 1539 1538 1538 1537 1537 1536 1535 1535 1534 1533
1537 1538 1539 1539 1539 1539 1540 1540 1541 1542 1543 1544 1543 1544 1544 1544 1545 1545 1545 1544 1544 1543 1543 1543 1542 1542 1541 1541 1540 1539 1538 1537 1537 1536 1536 1535 1535 1534 1533 1532 1532 1531
1535 1536 1537 1538 1538 1538 1538 1539 1539 1540 1541 1542 1542 1542 1543 1543 1543 1543 1543 1543 1542 1542 1542 1541 1541 1540 1540 1539 1538 1537 1536 1535 1535 1534 1534 1533 1532 1532 1531 1530 1529 1528
1533 1534 1535 1536 1536 1536 1536 1537 1538 1539 1540 1540 1541 1541 1541 1541 1541 1541 1541 1541 1541 1540 1540 1539 1539 1538 1538 1537 1536 1535 1535 1534 1533 1532 1531 1531 1530 1529 1529 1528 1527 1526
1531 1532 1533 1533 1534 1534 1533 1535 1537 1538 1538 1539 1539 1539 1539 1540 1540 1540 1540 1539 1539 1538 1538 1537 1537 1536 1536 1535 1534 1534 1533 1532 1531 1530 1529 1529 1528 1527 1527 1526 1525 1524
1529 1529 1530 1530 1531 1531 1531 1533 1535 1536 1536 1537 1537 1537 1537 1538 1538 1538 1538 1537 1537 1536 1536 1535 1535 1534 1533 1533 1532 1532 1531 1530 1529 1529 1528 1527 1526 1525 1524 1523 1522 1521
1526 1526 1527 1528 1529 1530 1530 1531 1533 1534 1534 1535 1535 1535 1535 1535 1536 1536 1535 1535 1534 1534 1533 1533 1532 1532 1531 1530 1530 1530 1529 1529 1528 1527 1527 1526 1525 1524 1522 1521 1520 1519
1523 1524 1525 1526 1527 1528 1529 1530 1531 1532 1532 1532 1532 1533 1533 1533 1533 1533 1533 1532 1532 1531 1531 1531 1530 1530 1529 1529 1528 1528 1527 1527 1526 1526 1525 1525 1524 1522 1521 1519 1518 1517
1521 1523 1523 1524 1526 1526 1527 1528 1529 1530 1530 1530 1530 1531 1532 1532 1532 1531 1531 1530 1530 1529 1529 1529 1528 1528 1527 1527 1526 1526 1525 1525 1525 1524 1524 1523 1522 1521 1519 1518 1516 1515
1519 1521 1521 1522 1524 1524 1525 1526 1526 1527 1528 1528 1529 1529 1530 1530 1529 1529 1528 1528 1528 1527 1527 1526 1526 1526 1525 1525 1525 1524 1524 1523 1522 1522 1522 1521 1521 1519 1518 1516 1515 1513
1517 1518 1519 1520 1521 1522 1523 1523 1524 1525 1526 1526 1527 1527 1527 1527 1527 1527 1526 1526 1525 1525 1525 1524 1524 1524 1523 1523 1523 1522 1522 1521 1520 1520 1519 1519 1518 1517 1516 1515 1513 1512
1514 1516 1517 1518 1519 1520 1521 1521 1522 1523 1523 1524 1524 1524 1524 1524 1524 1524 1523 1523 1523 1522 1522 1522 1522 1522 1521 1521 1521 1521 1520 1519 1518 1518 1517 1516 1515 1514 1514 1513 1512 1510
1512 1512 1513 1515 1516 1518 1518 1519 1520 1521 1521 1521 1521 1521 1521 1521 1521 1521 1521 1520 1520 1520 1519 1519 1519 1519 1519 1519 1519 1519 1518 1518 1517 1516 1515 1514 1513 1512 1511 1510 1509 1508
1509 1509 1511 1513 1514 1515 1516 1517 1518 1518 1518 1518 1518 1518 1519 1519 1519 1519 1518 1518 1518 1517 1517 1516 1516 1516 1516 1516 1516 1516 1516 1515 1515 1514 1513 1511 1511 1510 1509 1508 1507 1506
1506 1507 1509 1511 1512 1513 1514 1515 1516 1516 1516 1516 1516 1517 1517 1516 1516 1516 1516 1516 1516 1515 1515 1514 1514 1514 1513 1513 1513 1513 1513 1513 1512 1511 1510 1509 1508 1507 1506 1506 1504 1503
1504 1505 1507 1509 1510 1511 1512 1513 1513 1513 1513 1514 1514 1515 1515 1514 1514 1514 1514 1514 1514 1513 1513 1512 1512 1512 1511 1511 1511 1511 1511 1510 1509 1508 1507 1506 1505 1504 1504 1503 1502 1500
1502 1503 1505 1506 1507 1508 1509 1510 1510 1511 1511 1512 1512 1512 1512 1512 1512 1512 1511 1512 1511 1511 1511 1510 1510 1510 1509 1509 1509 1509 1508 1508 1507 1506 1504 1503 1502 1502 1501 1500 1499 1497
1501 1502 1503 1504 1505 1505 1506 1507 1507 1508 1510 1510 1511 1511 1511 1511 1510 1510 1510 1510 1510 1509 1509 1508 1507 1507 1507 1506 1506 1506 1506 1505 1504 1503 1502 1501 1500 1499 1499 1497 1496 1495
1499 1500 1501 1501 1502 1502 1503 1504 1505 1506 1507 1508 1508 1508 1508 1508 1508 1508 1509 1508 1507 1507 1507 1506 1505 1505 1504 1504 1503 1503 1503 1502 1501 1500 1499 1498 1497 1497 1496 1495 1494 1492
1497 1498 1499 1499 1499 1499 1500 1500 1501 1502 1503 1504 1504 1504 1505 1505 1505 1504 1504 1504 1504 1504 1504 1504 1503 1502 1502 1502 1501 1501 1500 1499 1498 1498 1497 1496 1495 1494 1494 1493 1492 1490
1495 1496 1496 1496 1496 1496 1497 1497 1497 1498 1499 1500 1501 1501 1501 1501 1500 1500 1500 1500 1501 1501 1500 1500 1500 1500 1500 1499 1498 1498 1497 1496 1495 1495 1494 1494 1493 1492 1491 1490 1489 1487
Wind_Speed
10 8 7 6 5 5 5 5 5 4 4 4 4 4 5 5 5 5 4 4 4 5 5 5 5 5 4 4 4 4 4 4 4 4 4 4 4 4 5 6 6 6
11 9 8 6 5 5 5 5 5 5 4 3 3 5 5 4 3 3 4 4 4 4 5 5 5 5 4 4 4 3 4 4 4 5 4 4 4 4 5 6 7 7
12 9 7 6 5 4 4 5 5 4 4 3 4 5 4 3 3 3 3 3 4 4 5 5 5 5 5 5 5 5 4 5 5 5 5 5 5 5 6 6 7 8
11 9 7 6 5 5 5 5 4 4 4 4 4 3 2 1 2 2 2 3 4 4 3 4 5 6 6 6 7 6 5 5 5 6 6 6 7 7 7 7 8 8
11 9 8 7 6 5 5 5 4 4 5 5 4 3 2 1 1 1 2 4 4 4 4 5 6 6 7 7 8 8 8 7 6 7 8 8 8 9 9 10 9 9
12 10 9 7 6 6 6 5 5 6 6 6 5 4 3 2 1 1 3 4 4 4 5 6 7 7 8 9 9 10 10 9 8 8 9 9 10 10 11 12 12 11
13 10 9 8 7 7 7 6 6 7 7 7 6 4 4 4 4 3 3 5 5 5 5 7 9 8 9 10 11 11 11 12 11 10 11 11 11 11 12 13 13 13
13 11 9 9 8 8 7 7 7 7 8 8 6 5 5 6 6 5 6 8 7 6 7 8 10 10 10 10 11 12 12 12 12 12 12 12 11 11 12 13 14 14
14 11 10 9 8 8 7 6 7 8 9 9 6 6 7 7 8 8 9 9 8 8 8 8 10 12 12 11 11 13 13 12 13 13 12 12 12 12 12 13 14 14
15 12 11 10 9 8 7 7 9 10 9 8 7 8 9 10 10 11 11 11 11 10 10 11 12 12 13 13 13 14 15 13 12 12 11 12 12 12 12 13 13 14
16 13 11 10 10 9 7 6 9 9 8 7 8 10 11 12 12 12 12 13 14 14 14 15 15 14 14 14 14 16 16 12 11 12 12 12 11 12 13 13 14 15
18 14 10 10 11 9 6 6 7 7 7 8 10 11 13 14 14 14 14 15 15 16 16 17 16 15 16 17 17 17 15 12 11 12 12 11 11 11 13 14 14 15
18 13 9 10 10 7 6 6 6 6 7 8 11 14 16 17 16 15 16 17 17 17 17 17 17 18 19 19 17 15 13 11 11 11 11 11 11 12 13 14 14 15
17 11 9 10 9 8 8 7 6 6 7 9 13 16 17 17 16 15 16 17 17 17 16 16 16 16 16 16 15 13 12 12 12 11 10 10 12 13 14 15 15 15
16 12 11 12 11 10 10 8 7 8 8 11 13 15 15 15 15 15 15 16 15 15 14 13 12 12 12 12 12 11 11 12 11 10 10 11 12 14 15 15 15 15
17 13 13 15 14 11 11 10 10 11 12 13 14 14 15 15 15 15 15 14 14 13 12 11 10 10 10 9 8 8 9 9 9 10 11 12 13 14 15 14 15 15
17 14 15 17 15 12 12 12 12 14 15 15 15 16 16 15 15 14 14 13 13 13 12 10 10 10 10 9 8 8 10 10 11 12 13 14 14 15 15 15 15 15
18 15 16 17 15 14 15 15 15 17 18 17 17 17 16 15 15 14 14 13 13 13 12 11 11 11 10 10 10 11 12 13 13 14 15 16 16 16 16 16 15 15
15 14 15 17 16 16 17 17 18 20 20 19 18 17 17 17 16 15 15 15 14 13 13 13 13 12 11 11 12 12 13 15 16 17 17 17 17 17 18 17 16 16
15 14 15 17 19 19 20 21 21 22 22 21 20 19 19 19 18 17 16 16 15 14 15 15 14 13 13 13 13 14 15 17 18 18 18 18 18 18 18 18 17 16
20 16 15 17 21 22 23 24 24 24 23 23 22 21 21 20 19 18 18 17 16 15 16 16 14 13 14 14 14 15 16 18 18 18 17 17 18 18 18 18 17 17
24 20 18 20 23 24 25 26 26 26 25 24 24 23 22 21 20 20 19 18 16 16 16 17 15 14 15 15 15 16 17 18 17 17 16 17 17 17 18 18 18 18
26 24 21 21 24 25 26 27 27 27 26 25 25 24 23 23 23 22 21 20 18 17 17 17 16 16 17 17 17 18 18 17 17 16 16 16 17 17 18 18 17 17
29 27 24 22 24 25 25 27 28 28 27 26 26 26 25 24 24 24 25 25 23 19 18 18 17 17 19 19 18 19 18 18 18 17 16 16 17 16 17 17 16 15
29 26 22 20 22 23 24 27 29 29 28 27 27 28 27 27 26 27 28 29 27 23 21 20 20 19 19 20 20 20 19 19 19 18 17 17 17 16 16 16 16 17
26 20 18 19 22 23 25 28 29 29 30 29 28 28 28 29 29 30 29 29 27 25 24 25 25 24 22 22 22 21 21 20 19 18 17 17 17 17 17 18 18 19
Wind_Direction
200 197 199 206 213 221 229 229 230 231 226 226 241 252 238 223 226 241 258 261 262 278 290 291 296 295 285 287 291 286 292 307 320 328 327 316 313 307 302 309 313 312
203 201 201 205 212 223 231 234 235 230 229 244 263 261 254 246 245 264 280 279 277 280 275 278 286 284 280 285 289 289 295 297 295 303 310 301 295 293 293 302 307 308
206 206 205 206 213 223 228 231 234 233 241 256 259 259 258 262 285 301 310 314 307 290 274 276 279 275 277 281 286 293 293 284 279 286 294 290 284 285 289 297 301 301
206 209 212 210 212 218 223 230 236 241 249 249 243 234 217 248 285 301 348 351 335 321 312 312 303 293 290 285 283 286 285 280 276 281 288 288 285 284 283 286 287 289
206 211 215 215 217 218 221 230 237 242 244 237 219 190 162 192 242 297 359 351 344 351 1 358 347 333 319 308 296 287 283 281 276 278 284 286 287 284 278 277 279 283
205 209 216 218 219 220 221 224 228 238 239 226 207 190 182 214 254 308 324 321 322 336 343 339 339 336 331 330 320 300 284 278 277 276 277 282 288 286 279 278 284 286
204 206 213 219 220 221 220 216 222 235 232 215 205 210 225 246 271 277 275 289 301 309 317 319 318 315 316 322 325 313 290 278 279 279 278 284 289 288 285 284 286 286
202 203 212 220 221 221 216 214 225 231 222 215 215 229 245 263 275 270 266 275 284 288 294 302 302 299 298 305 315 317 302 282 278 281 281 285 288 288 288 285 283 283
197 200 210 216 218 217 211 216 229 223 214 217 224 236 248 259 263 263 265 268 271 274 279 289 293 290 289 293 302 312 308 286 275 277 277 278 285 289 291 286 282 282
196 199 206 210 214 208 199 212 227 222 217 225 240 249 251 253 255 262 267 270 274 276 277 281 283 279 278 282 291 303 305 287 270 271 273 275 284 290 294 293 288 287
196 200 204 209 213 202 191 210 225 226 231 245 257 260 257 256 259 263 264 267 273 276 276 277 276 274 272 276 287 297 298 285 269 269 273 279 288 294 297 299 297 295
199 201 206 211 209 196 190 211 224 234 248 257 258 255 255 260 262 261 261 264 269 271 273 276 277 276 275 279 285 289 288 280 270 270 275 283 293 299 301 302 301 299
201 202 212 210 199 189 195 211 222 238 253 256 253 252 258 264 265 262 264 268 270 271 273 275 276 275 275 277 277 277 279 277 273 274 279 286 295 302 306 305 303 301
205 209 217 205 193 194 201 207 215 231 249 253 251 254 259 262 262 261 263 266 269 270 269 270 272 272 271 268 266 269 275 276 275 276 281 288 297 305 308 306 304 303
207 210 210 198 195 200 201 202 211 223 238 245 248 253 256 255 256 256 258 263 266 267 267 269 275 277 272 265 264 270 275 274 272 274 278 286 295 304 307 305 304 302
209 214 212 203 199 199 198 203 213 221 232 238 242 248 250 250 251 251 255 263 267 269 269 274 285 287 279 270 269 273 272 269 268 269 273 280 289 299 303 303 302 300
212 217 213 208 205 203 203 208 217 226 233 237 242 245 246 247 249 252 257 263 266 267 269 276 289 289 277 267 268 271 268 267 271 273 273 276 282 291 297 300 299 296
214 218 212 210 213 213 212 215 222 231 235 238 241 244 245 247 251 254 257 259 261 265 270 277 286 284 270 259 261 267 267 270 278 282 281 280 280 284 289 294 295 291
220 232 225 221 222 222 221 222 227 234 238 240 243 245 246 249 252 254 255 258 260 265 271 277 281 278 264 256 261 267 269 275 283 288 288 285 281 281 284 288 292 288
230 248 244 234 229 229 229 229 233 238 241 244 246 248 248 249 252 253 256 259 260 265 271 274 276 273 263 259 266 271 274 280 286 289 290 287 282 279 280 285 289 288
235 252 256 243 233 233 237 237 238 241 244 247 249 250 251 252 254 256 258 260 261 265 270 270 270 270 266 267 272 272 276 283 288 291 292 288 282 277 277 284 290 289
238 252 262 250 238 238 242 243 245 246 248 250 251 253 254 255 256 258 258 259 260 262 264 265 267 269 269 271 272 271 276 283 288 292 292 289 284 279 278 286 292 291
239 254 265 254 240 241 246 250 252 252 252 253 256 259 261 261 264 267 267 265 263 260 261 263 267 270 271 273 271 269 274 281 286 291 294 291 285 280 282 289 293 292
243 257 263 253 244 247 253 256 257 257 257 259 261 263 264 265 268 272 273 269 265 263 263 266 269 270 271 271 268 267 272 278 285 293 296 293 285 280 284 292 295 294
250 258 258 252 253 256 258 260 262 263 263 263 263 262 262 263 264 265 268 270 270 268 265 266 270 269 268 267 264 265 272 278 284 292 296 292 285 281 285 292 297 298
253 254 254 257 259 261 264 265 267 268 266 264 264 264 262 261 260 260 265 272 275 272 266 265 267 266 264 264 262 264 272 279 284 290 294 290 283 281 287 296 301 301